Wind_Speed
21 20 20 20 20 20 20 20 21 21 21 21 22 22 22 22 22 23 22 22 22 23 24 23 24 24 25 24 24 23 24 24 23 23 23 24 24 24
20 20 19 20 20 21 21 21 22 22 22 22 22 23 23 23 23 23 23 23 24 24 25 25 25 26 26 26 25 25 25 24 24 24 24 25 25 25
19 20 20 20 21 22 21 22 22 22 22 21 22 23 23 23 23 24 23 23 24 24 25 26 26 26 26 26 27 26 26 26 25 26 26 26 26 27
20 21 21 21 21 21 22 22 22 22 22 21 21 21 22 23 23 24 24 24 24 25 26 26 27 26 26 26 26 26 26 27 27 27 27 27 28 28
21 21 21 21 21 21 21 21 22 22 23 22 21 22 22 23 23 24 25 25 25 26 27 26 26 26 27 27 27 27 27 28 28 27 27 28 29 29
21 21 21 21 22 22 22 22 22 22 23 23 22 22 22 22 23 24 24 24 25 25 25 25 26 27 27 28 28 29 29 29 29 28 29 29 30 31
21 21 22 22 22 23 23 22 22 22 23 23 23 23 23 23 24 24 24 25 24 24 24 25 26 27 28 28 29 29 30 31 31 31 30 30 30 31
20 21 21 22 22 23 23 23 22 22 23 23 24 24 24 24 25 25 25 25 25 24 25 26 27 27 27 28 28 28 29 30 31 31 32 32 32 32
21 21 21 21 22 22 22 22 22 22 22 22 23 24 24 24 24 24 24 24 24 25 26 26 26 26 26 27 28 29 29 30 30 31 32 32 32 32
22 22 22 22 22 22 22 22 21 22 22 22 23 23 23 23 23 23 23 24 24 25 26 26 26 26 27 27 28 29 29 29 30 31 31 31 31 31
22 22 22 22 22 22 22 21 21 21 22 23 23 23 23 23 22 22 22 23 24 25 26 26 26 26 27 27 28 29 29 29 30 30 29 30 31 32
22 22 23 22 22 22 22 22 21 21 21 22 23 23 23 22 22 22 22 23 23 24 24 24 24 25 25 25 26 27 27 27 27 28 29 30 31 32
22 22 22 21 21 22 22 21 21 22 22 22 23 23 22 22 22 22 23 23 23 23 23 24 24 24 24 24 24 25 26 26 26 27 28 29 30 31
22 22 21 21 22 22 22 22 22 22 22 22 22 22 22 22 22 23 23 23 22 23 24 24 24 24 24 24 24 25 26 26 26 26 28 28 29 30
21 21 21 21 21 21 21 21 22 21 21 21 21 22 22 22 22 23 23 22 22 23 23 24 24 24 25 25 25 25 25 25 26 26 27 28 28 29
20 19 20 20 20 20 20 20 20 20 20 20 20 21 22 22 22 22 22 22 23 23 23 24 24 23 24 25 25 25 26 26 26 26 27 27 28 28
19 18 18 19 18 19 19 19 20 20 20 20 20 21 21 21 21 21 22 22 23 23 23 23 23 23 23 23 24 25 26 26 26 27 28 28 29 30
18 18 18 18 19 19 19 19 19 20 20 20 21 20 21 21 21 21 21 22 22 23 23 23 23 23 23 23 24 24 24 25 26 27 27 28 29 30
18 17 18 18 19 19 18 19 20 20 20 21 21 21 21 21 21 22 22 22 22 22 23 23 24 25 25 25 24 23 23 24 26 27 27 28 28 29
19 18 18 18 19 19 20 20 20 20 20 20 20 21 21 21 22 22 22 23 22 23 24 24 25 25 25 24 24 23 24 24 24 25 26 27 28 28
20 19 19 19 20 20 21 21 20 20 20 20 20 21 21 22 22 22 22 22 22 23 23 24 24 24 24 24 23 24 25 25 25 25 26 26 27 27
20 20 20 20 20 21 21 20 20 19 20 20 21 21 22 22 22 22 22 22 23 23 24 24 24 24 24 24 24 24 25 26 27 27 27 27 27 26
22 21 21 21 21 21 21 20 20 20 21 21 22 22 22 22 22 22 22 22 23 24 24 24 24 24 23 23 23 24 24 25 26 26 26 26 25 25
Wind_Direction
276 275 276 275 274 273 271 270 267 265 266 267 266 266 266 266 265 263 263 263 264 263 263 264 263 263 263 263 264 264 265 265 265 264 261 259 258 259
277 278 277 276 274 273 272 272 270 267 265 266 268 269 269 269 268 265 264 265 266 266 265 264 263 262 263 263 263 264 265 263 264 264 264 262 260 260
277 277 275 275 276 274 275 274 271 267 265 268 269 270 271 271 269 268 267 265 265 265 265 265 264 264 264 263 265 264 265 265 265 264 263 263 262 261
278 276 273 274 276 276 275 273 270 266 265 267 269 269 269 269 268 267 266 266 265 266 266 265 266 265 266 266 266 266 267 267 266 265 263 263 262 261
279 277 274 273 273 274 274 273 270 267 264 265 266 267 268 270 269 267 266 266 267 267 267 266 266 267 267 269 269 268 267 268 268 267 265 264 263 262
278 276 275 272 272 272 273 272 270 268 266 264 264 267 271 273 272 270 267 267 269 269 268 267 268 268 269 270 270 270 270 269 268 266 266 265 263 263
279 279 277 276 273 272 271 271 271 270 269 268 267 269 272 275 275 272 270 269 269 269 268 269 269 269 270 271 272 271 270 270 269 267 266 266 265 263
280 280 280 278 275 274 271 271 270 270 271 271 269 270 271 273 274 272 272 272 269 267 268 269 270 271 273 274 274 274 273 272 270 269 269 268 267 266
278 279 279 277 276 274 273 272 271 269 271 273 273 271 272 274 275 274 273 272 270 269 270 272 272 273 274 275 275 275 275 275 274 272 270 269 268 266
277 276 277 277 278 276 275 273 272 271 272 273 273 273 275 276 276 275 273 273 273 273 273 274 275 276 276 276 276 275 275 276 276 275 273 270 269 267
277 275 276 276 276 275 274 272 272 272 273 275 276 275 275 275 275 274 274 275 275 275 274 274 276 276 277 278 278 277 276 275 275 274 272 270 270 268
277 276 277 275 273 273 272 271 272 273 275 277 275 275 273 273 273 274 277 278 277 276 275 276 277 278 278 278 278 278 278 277 276 274 273 272 271 269
277 277 276 274 272 273 272 272 273 273 276 276 274 273 271 271 272 274 278 279 278 278 277 278 278 279 280 280 279 280 280 279 279 278 277 276 274 271
277 274 272 272 273 274 273 272 272 274 276 274 272 272 271 270 272 274 275 278 278 279 279 280 280 281 282 283 283 282 281 280 280 280 281 279 278 275
280 275 273 272 271 273 274 275 275 274 275 275 274 272 271 270 271 273 274 276 279 280 280 281 282 283 283 284 284 283 283 282 282 282 282 280 279 277
280 277 276 274 273 273 274 276 276 276 276 276 276 274 273 271 271 273 274 276 279 281 281 281 283 285 285 285 285 285 284 284 284 284 284 283 282 281
281 277 278 277 274 276 276 276 276 279 279 277 275 274 274 274 274 275 277 278 280 281 281 282 283 285 287 287 286 284 284 284 284 285 285 286 285 284
283 279 278 278 277 277 278 277 277 279 280 280 279 278 278 278 277 277 280 281 282 283 282 283 285 287 288 289 289 287 286 287 287 287 288 288 287 286
282 281 281 281 279 279 280 281 281 280 280 279 278 278 279 280 280 279 281 282 283 284 284 285 287 288 289 288 288 289 289 289 289 288 289 290 288 287
282 283 284 283 282 280 279 281 282 281 279 279 278 278 279 281 282 282 282 281 282 284 286 286 287 288 289 289 288 288 289 291 291 291 291 291 290 288
281 281 281 281 280 279 280 280 279 278 279 280 280 280 280 282 282 283 283 282 283 285 286 288 288 288 288 288 288 289 290 292 292 294 294 293 292 290
279 280 281 282 280 280 279 277 276 276 278 280 282 283 283 282 283 284 284 283 284 285 286 287 288 289 289 289 289 291 293 294 295 295 296 296 295 292
280 281 282 282 282 281 279 276 276 277 278 279 282 284 285 285 286 286 286 286 287 288 288 287 287 287 288 289 291 294 295 296 297 298 298 299 298 296
Height
5805 5804 5803 5803 5803 5803 5802 5802 5803 5803 5804 5803 5803 5803 5803 5803 5804 5804 5805 5805 5806 5807 5807 5808 5808 5809 5809 5809 5810 5810 5810 5811 5811 5811 5811 5812 5812 5813
5799 5799 5798 5797 5797 5797 5797 5797 5796 5797 5797 5797 5797 5797 5797 5797 5797 5797 5798 5799 5799 5800 5801 5801 5801 5802 5802 5803 5803 5803 5804 5804 5804 5804 5804 5805 5805 5806
5794 5793 5793 5792 5791 5791 5791 5790 5790 5790 5791 5791 5791 5791 5791 5791 5791 5791 5791 5792 5792 5793 5794 5794 5794 5795 5795 5795 5795 5796 5796 5797 5797 5797 5797 5797 5798 5799
5788 5787 5786 5786 5785 5785 5784 5784 5784 5784 5784 5785 5785 5785 5785 5785 5785 5785 5785 5785 5786 5786 5786 5787 5787 5787 5787 5788 5788 5788 5788 5789 5789 5789 5789 5790 5790 5791
5781 5781 5780 5779 5779 5778 5778 5777 5777 5777 5778 5778 5779 5779 5779 5778 5778 5778 5779 5779 5779 5779 5779 5779 5779 5780 5780 5780 5780 5780 5781 5781 5781 5781 5781 5781 5782 5783
5775 5774 5773 5773 5772 5772 5771 5771 5771 5771 5771 5771 5772 5772 5772 5772 5772 5772 5772 5771 5772 5771 5771 5771 5772 5772 5772 5772 5772 5772 5772 5772 5772 5772 5772 5773 5773 5774
5768 5768 5767 5766 5765 5765 5765 5764 5764 5764 5764 5764 5765 5765 5765 5765 5765 5765 5765 5765 5764 5764 5764 5764 5764 5764 5764 5764 5764 5763 5763 5763 5763 5763 5763 5764 5764 5765
5762 5761 5760 5759 5759 5758 5758 5757 5757 5757 5758 5757 5758 5758 5758 5758 5758 5757 5758 5758 5758 5758 5757 5757 5757 5757 5756 5756 5755 5755 5754 5754 5753 5753 5754 5754 5755 5755
5756 5755 5754 5753 5752 5751 5751 5750 5750 5750 5751 5751 5751 5751 5751 5751 5751 5750 5750 5750 5751 5751 5750 5750 5749 5749 5748 5747 5747 5746 5746 5745 5744 5744 5744 5744 5745 5745
5749 5748 5747 5746 5745 5744 5744 5744 5744 5744 5744 5744 5744 5743 5743 5743 5743 5743 5743 5743 5743 5743 5742 5742 5742 5741 5740 5739 5739 5738 5737 5736 5735 5734 5734 5734 5735 5735
5742 5741 5740 5739 5738 5738 5737 5737 5737 5737 5737 5737 5737 5737 5736 5736 5736 5736 5736 5736 5736 5736 5735 5735 5734 5733 5732 5731 5730 5729 5728 5727 5726 5725 5725 5725 5725 5725
5736 5734 5734 5732 5732 5731 5731 5731 5731 5730 5730 5729 5729 5729 5729 5729 5729 5730 5730 5729 5729 5728 5727 5727 5726 5725 5724 5724 5722 5720 5719 5718 5717 5716 5716 5716 5715 5715
5729 5728 5727 5726 5726 5725 5724 5724 5724 5723 5723 5723 5722 5722 5722 5723 5723 5723 5722 5722 5722 5721 5720 5719 5718 5717 5716 5716 5714 5713 5712 5711 5709 5708 5707 5706 5706 5705
5722 5721 5720 5720 5719 5719 5718 5718 5717 5717 5716 5716 5716 5716 5716 5716 5716 5716 5715 5715 5714 5714 5713 5712 5711 5710 5709 5708 5707 5706 5704 5703 5702 5700 5699 5697 5696 5695
5715 5714 5714 5713 5713 5713 5712 5712 5711 5711 5710 5710 5709 5709 5709 5710 5709 5709 5708 5708 5707 5707 5706 5705 5704 5703 5701 5700 5699 5698 5696 5695 5693 5692 5691 5689 5688 5687
5709 5708 5707 5707 5707 5707 5706 5706 5705 5705 5705 5704 5703 5703 5703 5703 5703 5702 5702 5701 5701 5700 5699 5698 5697 5695 5694 5693 5691 5690 5688 5687 5686 5684 5682 5681 5679 5678
5703 5702 5701 5701 5701 5701 5701 5700 5700 5700 5699 5698 5698 5697 5697 5697 5696 5696 5695 5695 5694 5693 5692 5691 5690 5688 5687 5685 5684 5682 5680 5679 5677 5676 5674 5672 5671 5669
5697 5697 5696 5696 5695 5695 5695 5694 5694 5694 5693 5693 5692 5692 5691 5691 5690 5690 5689 5688 5688 5686 5685 5684 5683 5682 5680 5678 5676 5674 5672 5671 5669 5667 5666 5664 5662 5660
5692 5691 5691 5690 5690 5690 5689 5689 5689 5688 5688 5687 5687 5686 5686 5685 5684 5683 5683 5682 5681 5679 5678 5677 5676 5674 5673 5671 5669 5667 5665 5663 5661 5659 5657 5655 5653 5651
5687 5686 5686 5685 5684 5684 5683 5683 5682 5682 5681 5681 5680 5680 5679 5678 5678 5677 5676 5675 5674 5672 5671 5669 5668 5667 5665 5664 5662 5660 5658 5656 5653 5651 5649 5646 5644 5642
5681 5680 5680 5679 5678 5677 5676 5676 5675 5675 5675 5675 5674 5673 5673 5672 5671 5670 5669 5667 5666 5665 5664 5663 5661 5659 5657 5656 5655 5653 5650 5647 5645 5643 5640 5638 5636 5633
5675 5674 5673 5672 5671 5670 5669 5669 5669 5669 5669 5668 5668 5667 5666 5665 5664 5663 5662 5661 5660 5658 5657 5655 5653 5652 5650 5649 5647 5645 5643 5640 5637 5634 5632 5630 5627 5625
5668 5668 5667 5666 5664 5663 5662 5662 5662 5662 5662 5662 5661 5660 5659 5658 5657 5656 5655 5654 5652 5651 5650 5648 5646 5645 5643 5642 5640 5638 5635 5633 5630 5627 5624 5621 5619 5617